Lexington Weather

Lexington, Massachusetts, USA

43°F
11/27/2020 4:01am 
  • Lexington Conditions: Mist, Overcast
  • Temperature: 43.0°F / 6.1°CWarmer 3.1°F than last hour.
  • Dew Point: 42.4°FIncreased 3.2°Fsince last hour.
  • Relative Humidity: 98%Increased 1.0% since last hour.
  • Wind: Calm, 10-min avg: Calm, gust: None
  • Barometer: 29.97 in Steady
  • Visibility: ¾ mile
  • Rain Today: 0.00 in
  •   
Southeast Middlesex County - Special Weather Statement
 - SEE ALL NEARBY ALERTS -

Regional Weather Roundup
for Boston / Norton, MA

        
000
ASUS41 KBOX 231504
RWRBOX

REGIONAL WEATHER ROUNDUP
NATIONAL WEATHER SERVICE BOSTON/NORTON MA
1000 AM EST MON NOV 23 2020

NOTE:  "FAIR" INDICATES FEW OR NO CLOUDS BELOW 12,000 FEET WITH NO 
SIGNIFICANT WEATHER AND/OR OBSTRUCTIONS TO VISIBILITY.

MAZALL-231600-
EASTERN MASSACHUSETTS
  
CITY           SKY/WX    TMP DP  RH WIND       PRES   REMARKS
BOSTON         HVY RAIN  57  56  96 SW12G23   29.78F FOG              
BEVERLY        HVY RAIN  57  56  96 SW8       29.79R VSB 1            
LAWRENCE       HVY RAIN  52  51  97 CALM      29.80F FOG              
BEDFORD        HVY RAIN  53  53 100 CALM      29.77F FOG              
BLUE HILL        N/A     56  56 100 SW13      29.78S                  
NORWOOD        RAIN      60  56  86 SW6       29.78F FOG              
MARSHFIELD     CLOUDY    63  61  94 SW10G21   29.79S FOG              
PLYMOUTH       LGT RAIN  61  57  87 SW15G22   29.80F                  
TAUNTON        HVY RAIN  59  56  89 S6        29.81F FOG              
NEW BEDFORD    LGT RAIN  60  58  92 SW9       29.81R FOG              
$$

MAZALL-231600-
CAPE COD AND THE ISLANDS
  
CITY           SKY/WX    TMP DP  RH WIND       PRES   REMARKS
FALMOUTH       CLOUDY    59  59 100 S23G35    29.81F                  
HYANNIS        CLOUDY    58  56  93 S13G21    29.80F                  
CHATHAM        CLOUDY    58  56  93 S13G26    29.84F                  
PROVINCETOWN   CLOUDY    60  58  92 S15G29    29.80F                  
NANTUCKET      CLOUDY    60  57  89 SE20      29.83F                  
MARTHAS VNYRD  CLOUDY    61  58  90 S17G25    29.81F                  
$$
 
MAZALL-231600-
CENTRAL AND WESTERN MASSACHUSETTS
  
CITY           SKY/WX    TMP DP  RH WIND       PRES   REMARKS
WORCESTER      LGT RAIN  50  47  89 NW14      29.81R                  
FITCHBURG      LGT RAIN  47  47 100 CALM      29.81F FOG              
ORANGE         LGT RAIN  46  45  96 VRB3      29.85R                  
SPRINGFIELD    NOT AVBL                                               
WESTFIELD      RAIN      45  41  86 NW13G24   29.89R FOG              
NORTH ADAMS    LGT RAIN  42  36  79 W15       29.92R                  
PITTSFIELD     LGT RAIN  38  34  85 W8G16     29.91R                  
$$
 
RIZALL-231600-
RHODE ISLAND
  
CITY           SKY/WX    TMP DP  RH WIND       PRES   REMARKS
PROVIDENCE     HVY RAIN  58  58 100 S9        29.79F FOG              
NEWPORT        HVY RAIN  57  56  96 VRB6      29.80F VSB 1/2          
BLOCK ISLAND   RAIN      57  56  96 SW15      29.82S FOG              
SMITHFIELD     RAIN      57  57 100 CALM      29.79F FOG              
WESTERLY       HVY RAIN  57  55  93 W10G21    29.81S FOG              
$$
 
CTZALL-231600-
CONNECTICUT
  
CITY           SKY/WX    TMP DP  RH WIND       PRES   REMARKS
BRADLEY INTL   RAIN      46  44  93 NW13      29.89R FOG              
HARTFORD       RAIN      48  46  93 N5        29.85R FOG              
BRIDGEPORT     CLOUDY    56  52  86 W6        29.85S                  
DANBURY        CLOUDY    51  46  83 NW12G31   29.90R                  
GROTON         HVY RAIN  56  51  84 NW15      29.83R                  
NEW HAVEN      LGT RAIN  56  53  90 CALM      29.85R FOG              
CHESTER        RAIN      54  52  94 VRB5G12   29.86R                  
MERIDEN        LGT RAIN  52  50  93 CALM      29.85R                  
WILLIMANTIC    LGT RAIN  54  51  90 W7        29.83R                  
OXFORD         LGT RAIN  52  52 100 VRB3      29.85S                  
$$

MEZ002-015-021-024-NHZ003-005-008-011-012-014-VTZ005-008-231600-
NORTHERN NEW ENGLAND
  
CITY           SKY/WX    TMP DP  RH WIND       PRES   REMARKS
PORTLAND ME    TSTM      43  43 100 CALM      29.79F FOG              
BANGOR ME      RAIN      53  51  93 S7G18     29.81F FOG              
CONCORD NH     RAIN      42  40  92 CALM      29.83R FOG              
MANCHESTER NH  HVY RAIN  45  42  89 NW6       29.80F VSB 1            
NASHUA NH      RAIN      46  46 100 NW7       29.81F FOG              
PORTSMOUTH NH  LGT RAIN  54  52  94 CALM      29.77  FOG              
JAFFREY NH     LGT RAIN  46  43  89 CALM      29.81F FOG              
KEENE NH       RAIN      43  43 100 W6        29.85R                  
BURLINGTON VT  LGT RAIN  45  39  79 NW10      29.86R                  
MT. WASHINGTON NOT AVBL                                               
$$

NYZ052-076-231600-
EASTERN NEW YORK
  
CITY           SKY/WX    TMP DP  RH WIND       PRES   REMARKS
ALBANY         LGT RAIN  37  33  85 W12       29.97R WCI  29          
NEW YORK CITY  CLOUDY    53  42  66 NW25G38   29.89R                  
$$
 
ANZALL-231600-
MARINE OBSERVATIONS
  
STATION/POSITION TIME  TEMP    WIND        PRES    VSBY  WAVE
                       AIR SEA DIR/SP/G                  HT/PER
                 (UTC) (F)     (DEG/KT/KT) (MB)    (MI)  (FT/S)
BOSTON BUOY      1440   53 50  150/ 16/ 19 1008.5F
BUZZARDS BAY     1400          170/ 24/ 26 1009.6F
NANTUCKET SOUND  1440      52  160/ 21/ 27   N/A
MASS BAY-STELLWA NOT AVBL
ISLE OF SHOALS   1400   53     170/ 22/ 24 1008.2F
S OF BLOCK IS    1426      58                N/A           5/ 7
$$

......................KEY.........................
  SKY/WX - SKY CONDITION/PRESENT WEATHER
  TMP    - TEMPERATURE IN FAHRENHEIT
  DWPT   - DEWPOINT IN FAHRENHEIT
  RH     - RELATIVE HUMIDITY IN PERCENT
  WIND   - DIRECTION AND SPEED IN MPH
  PRES   - MEAN SEA LEVEL PRESSURE IN INCHES OF HG
  WCI    - WIND CHILL INDEX
  VSB    - VISIBILITY IN MILES
  HX     - HEAT INDEX
  TC     - TEMPERATURE IN CELSIUS
  VRB    - VARIABLE WIND DIRECTION
  N/A    - NOT AVAILABLE
  
      

Other recent Regional Weather Roundups

Fri Nov 27, 1:04am

Fri Nov 27, 12:04am

Thu Nov 26, 11:04pm

Thu Nov 26, 10:04pm

Thu Nov 26, 9:04pm

Thu Nov 26, 8:04pm

Thu Nov 26, 7:04pm

Thu Nov 26, 6:04pm

Thu Nov 26, 5:04pm

Thu Nov 26, 4:04pm

Thu Nov 26, 2:04pm

Thu Nov 26, 1:04pm

Thu Nov 26, 12:04pm

Thu Nov 26, 11:04am

Thu Nov 26, 10:04am

Thu Nov 26, 9:04am

Thu Nov 26, 8:04am

Thu Nov 26, 7:04am

Thu Nov 26, 6:04am

Thu Nov 26, 5:04am

Thu Nov 26, 4:04am

Thu Nov 26, 3:04am

Thu Nov 26, 2:04am

Thu Nov 26, 1:04am

Thu Nov 26, 12:04am

Wed Nov 25, 11:04pm

Wed Nov 25, 10:04pm

Wed Nov 25, 9:04pm

Wed Nov 25, 8:04pm

Wed Nov 25, 7:04pm

Wed Nov 25, 6:04pm

Wed Nov 25, 5:04pm

Wed Nov 25, 4:04pm

Wed Nov 25, 3:05pm

Wed Nov 25, 2:04pm

Wed Nov 25, 1:04pm

Wed Nov 25, 12:05pm

Wed Nov 25, 11:04am

Wed Nov 25, 10:04am

Wed Nov 25, 9:04am

Wed Nov 25, 8:04am

Wed Nov 25, 7:04am

Wed Nov 25, 6:04am

Wed Nov 25, 5:04am

Wed Nov 25, 4:04am

Wed Nov 25, 3:04am

Wed Nov 25, 2:04am

Wed Nov 25, 1:04am

Wed Nov 25, 12:04am

Tue Nov 24, 11:04pm

Tue Nov 24, 10:04pm

Tue Nov 24, 9:04pm

Tue Nov 24, 8:04pm

Tue Nov 24, 7:04pm

Tue Nov 24, 6:04pm

Tue Nov 24, 5:04pm

Tue Nov 24, 4:05pm

Tue Nov 24, 3:05pm

Tue Nov 24, 2:05pm

Tue Nov 24, 1:05pm

Tue Nov 24, 12:04pm

Tue Nov 24, 11:04am

Tue Nov 24, 10:04am

Tue Nov 24, 9:04am

Tue Nov 24, 8:04am

Tue Nov 24, 7:04am

Tue Nov 24, 6:04am

Tue Nov 24, 5:04am

Tue Nov 24, 4:05am

Tue Nov 24, 3:04am

Tue Nov 24, 2:04am

Tue Nov 24, 1:04am

Tue Nov 24, 12:05am

Mon Nov 23, 11:04pm

Mon Nov 23, 10:04pm

Mon Nov 23, 9:04pm

Mon Nov 23, 8:04pm

Mon Nov 23, 7:04pm

Mon Nov 23, 6:04pm

Mon Nov 23, 5:04pm

Mon Nov 23, 4:04pm

Mon Nov 23, 3:04pm

Mon Nov 23, 2:04pm

Mon Nov 23, 1:04pm

Mon Nov 23, 12:04pm

Mon Nov 23, 11:04am

Mon Nov 23, 9:04am

Mon Nov 23, 8:05am

Mon Nov 23, 7:04am

Mon Nov 23, 6:04am

Mon Nov 23, 5:04am

Mon Nov 23, 4:04am

Mon Nov 23, 3:04am

Mon Nov 23, 2:04am

Mon Nov 23, 1:04am

Mon Nov 23, 12:05am

Sun Nov 22, 11:04pm

Sun Nov 22, 10:04pm

Sun Nov 22, 9:04pm

Sun Nov 22, 8:05pm

Sun Nov 22, 7:04pm

Sun Nov 22, 6:04pm

Sun Nov 22, 5:04pm

Sun Nov 22, 4:04pm

Sun Nov 22, 3:04pm

Sun Nov 22, 2:04pm

Sun Nov 22, 1:05pm

Sun Nov 22, 12:04pm

Sun Nov 22, 11:04am

Sun Nov 22, 10:05am

Sun Nov 22, 9:04am

Sun Nov 22, 8:04am

Sun Nov 22, 7:04am

Sun Nov 22, 6:04am

Sun Nov 22, 5:04am

Sun Nov 22, 4:04am

Sun Nov 22, 3:04am

Sun Nov 22, 2:04am

Sun Nov 22, 1:04am

Sun Nov 22, 12:04am

Sat Nov 21, 11:04pm

Sat Nov 21, 10:04pm

Sat Nov 21, 9:04pm

Sat Nov 21, 8:05pm

Sat Nov 21, 7:04pm

Sat Nov 21, 6:04pm

Sat Nov 21, 5:04pm

Sat Nov 21, 4:05pm

Sat Nov 21, 3:04pm

Sat Nov 21, 2:04pm

Sat Nov 21, 1:05pm

Sat Nov 21, 12:04pm

Sat Nov 21, 11:04am

Sat Nov 21, 10:04am

Sat Nov 21, 9:04am

Sat Nov 21, 8:04am

Sat Nov 21, 7:04am

Sat Nov 21, 6:04am

Sat Nov 21, 5:04am

Sat Nov 21, 4:04am

Sat Nov 21, 3:04am

Sat Nov 21, 2:04am

Sat Nov 21, 1:04am

Sat Nov 21, 12:04am

Fri Nov 20, 11:04pm

Fri Nov 20, 10:04pm

Fri Nov 20, 9:04pm

Fri Nov 20, 8:04pm

Fri Nov 20, 7:04pm

Fri Nov 20, 6:04pm

Fri Nov 20, 5:04pm

Fri Nov 20, 4:05pm

Fri Nov 20, 3:05pm

Fri Nov 20, 2:04pm

Fri Nov 20, 1:04pm

Fri Nov 20, 12:04pm

Fri Nov 20, 11:04am

Fri Nov 20, 10:04am

Fri Nov 20, 9:04am

Fri Nov 20, 8:04am

Fri Nov 20, 7:04am

Fri Nov 20, 6:04am

Fri Nov 20, 5:04am

Fri Nov 20, 4:04am

Meta data:

ID: 71fad766-7a08-4a5d-959d-2f6f9ea2c77a
Link: https://api.weather.gov/products/71fad766-7a08-4a5d-959d-2f6f9ea2c77a